Location: Shenandoah County Park
(38.9356°N, 78.4524°W)
Time: 04:18:03
(UTC-04:00)

Transit 2A - Pass Details

Date: 21 June 2024
Orbit: 591 x 960 km, 66.7° (Epoch: 23 July)

Event Time Altitude Azimuth Distance (km) Brightness Sun altitude
Rises 02:13:15 0° 326° (NW) 3,566 10.0 -26.2°
Reaches altitude 10° 02:15:48 10° 321° (NW) 2,652 9.2 -26.1°
Maximum altitude 02:21:50 51° 248° (WSW) 1,186 6.6 -25.7°
Enters shadow 02:21:52 51° 246° (WSW) 1,186 6.6 -25.7°
